Time,TemperatureF,DewpointF,PressureIn,WindDirection,WindDirectionDegrees,WindSpeedMPH,WindSpeedGustMPH,Humidity,HourlyPrecipIn,Conditions,Clouds,dailyrainin,SolarRadiationWatts/m^2,SoftwareType,DateUTC
2013-01-17 00:01:00,33.6,31.0,30.04,WSW,245,2.0,2.0,90,0.00,,,0.38,0,Wunderground v.1.15,2013-01-17 05:01:00,
2013-01-17 00:05:00,33.6,31.3,30.04,WSW,238,1.0,2.0,91,0.00,,,0.00,0,Wunderground v.1.15,2013-01-17 05:05:00,
2013-01-17 00:07:00,33.7,31.1,30.04,WSW,238,2.0,2.0,90,0.00,,,0.00,0,Wunderground v.1.15,2013-01-17 05:07:00,
2013-01-17 00:12:00,33.7,31.1,30.05,SW,236,1.0,3.0,90,0.00,,,0.00,0,Wunderground v.1.15,2013-01-17 05:12:00,
2013-01-17 00:14:00,33.7,31.1,30.05,SW,236,1.0,3.0,90,0.00,,,0.00,0,Wunderground v.1.15,2013-01-17 05:14:00,
2013-01-17 00:19:00,33.7,31.1,30.04,West,259,2.0,4.0,90,0.00,,,0.00,0,Wunderground v.1.15,2013-01-17 05:19:00,
2013-01-17 00:24:00,33.7,31.1,30.05,WSW,246,1.0,2.0,90,0.00,,,0.00,0,Wunderground v.1.15,2013-01-17 05:24:00,
2013-01-17 00:29:00,33.7,31.1,30.06,WSW,246,1.0,2.0,90,0.00,,,0.00,0,Wunderground v.1.15,2013-01-17 05:29:00,
2013-01-17 00:35:00,33.7,31.1,30.06,WSW,246,0.0,1.0,90,0.00,,,0.00,0,Wunderground v.1.15,2013-01-17 05:35:00,
2013-01-17 00:40:00,33.6,31.0,30.06,WSW,246,0.0,1.0,90,0.00,,,0.00,0,Wunderground v.1.15,2013-01-17 05:40:00,
2013-01-17 00:45:00,33.5,30.9,30.07,WSW,246,0.0,2.0,90,0.00,,,0.00,0,Wunderground v.1.15,2013-01-17 05:45:00,
2013-01-17 00:51:00,33.5,30.9,30.07,WSW,246,0.0,0.0,90,0.00,,,0.00,0,Wunderground v.1.15,2013-01-17 05:51:00,
2013-01-17 00:56:00,33.5,30.9,30.06,WSW,246,0.0,2.0,90,0.00,,,0.00,0,Wunderground v.1.15,2013-01-17 05:56:00,
2013-01-17 01:02:00,33.5,30.9,30.07,WSW,246,0.0,1.0,90,0.00,,,0.00,0,Wunderground v.1.15,2013-01-17 06:02:00,
2013-01-17 01:08:00,33.6,31.0,30.07,WSW,239,1.0,4.0,90,0.00,,,0.00,0,Wunderground v.1.15,2013-01-17 06:08:00,
2013-01-17 01:14:00,33.6,31.0,30.07,WSW,240,1.0,2.0,90,0.00,,,0.00,0,Wunderground v.1.15,2013-01-17 06:14:00,
2013-01-17 01:19:00,33.7,30.8,30.07,SW,234,1.0,2.0,89,0.00,,,0.00,0,Wunderground v.1.15,2013-01-17 06:19:00,
2013-01-17 01:24:00,33.6,31.0,30.07,SW,234,1.0,1.0,90,0.00,,,0.00,0,Wunderground v.1.15,2013-01-17 06:24:00,
2013-01-17 01:30:00,33.6,30.7,30.07,WSW,250,1.0,1.0,89,0.00,,,0.00,0,Wunderground v.1.15,2013-01-17 06:30:00,
2013-01-17 01:36:00,33.5,30.6,30.07,WSW,248,0.0,1.0,89,0.00,,,0.00,0,Wunderground v.1.15,2013-01-17 06:36:00,
2013-01-17 01:41:00,33.5,30.6,30.07,WSW,247,0.0,0.0,89,0.00,,,0.00,0,Wunderground v.1.15,2013-01-17 06:41:00,
2013-01-17 01:46:00,33.4,30.5,30.07,WSW,247,0.0,3.0,89,0.00,,,0.00,0,Wunderground v.1.15,2013-01-17 06:46:00,
2013-01-17 01:52:00,33.5,30.3,30.07,WSW,252,1.0,3.0,88,0.00,,,0.00,0,Wunderground v.1.15,2013-01-17 06:52:00,
2013-01-17 01:58:00,33.5,30.3,30.07,SW,223,2.0,5.0,88,0.00,,,0.00,0,Wunderground v.1.15,2013-01-17 06:58:00,
2013-01-17 02:04:00,33.6,30.4,30.07,SSW,211,3.0,3.0,88,0.00,,,0.00,0,Wunderground v.1.15,2013-01-17 07:04:00,
2013-01-17 02:09:00,33.6,30.4,30.06,SSW,212,2.0,3.0,88,0.00,,,0.00,0,Wunderground v.1.15,2013-01-17 07:09:00,
2013-01-17 02:15:00,33.5,30.3,30.07,SSW,212,1.0,2.0,88,0.00,,,0.00,0,Wunderground v.1.15,2013-01-17 07:15:00,
2013-01-17 02:21:00,33.4,30.2,30.08,WSW,247,1.0,1.0,88,0.00,,,0.00,0,Wunderground v.1.15,2013-01-17 07:21:00,
2013-01-17 02:27:00,33.4,30.2,30.08,WSW,248,1.0,2.0,88,0.00,,,0.00,0,Wunderground v.1.15,2013-01-17 07:27:00,
2013-01-17 02:33:00,33.4,30.2,30.08,SW,233,1.0,1.0,88,0.00,,,0.00,0,Wunderground v.1.15,2013-01-17 07:33:00,
2013-01-17 02:38:00,33.4,30.2,30.08,SW,230,1.0,2.0,88,0.00,,,0.00,0,Wunderground v.1.15,2013-01-17 07:38:00,
2013-01-17 02:43:00,33.4,30.2,30.08,SW,230,1.0,1.0,88,0.00,,,0.00,0,Wunderground v.1.15,2013-01-17 07:43:00,
2013-01-17 02:49:00,33.4,30.2,30.08,WSW,244,0.0,2.0,88,0.00,,,0.00,0,Wunderground v.1.15,2013-01-17 07:49:00,
2013-01-17 02:55:00,33.5,30.0,30.09,WSW,244,1.0,2.0,87,0.00,,,0.00,0,Wunderground v.1.15,2013-01-17 07:55:00,
2013-01-17 03:00:00,33.5,30.0,30.09,WSW,246,1.0,1.0,87,0.00,,,0.00,0,Wunderground v.1.15,2013-01-17 08:00:00,
2013-01-17 03:06:00,33.6,30.1,30.09,WSW,243,1.0,3.0,87,0.00,,,0.00,0,Wunderground v.1.15,2013-01-17 08:06:00,
2013-01-17 03:12:00,33.6,30.1,30.09,WNW,299,1.0,1.0,87,0.00,,,0.00,0,Wunderground v.1.15,2013-01-17 08:12:00,
2013-01-17 03:17:00,33.6,29.9,30.09,SW,226,0.0,4.0,86,0.00,,,0.00,0,Wunderground v.1.15,2013-01-17 08:17:00,
2013-01-17 03:22:00,33.6,30.1,30.09,WNW,292,1.0,1.0,87,0.00,,,0.00,0,Wunderground v.1.15,2013-01-17 08:22:00,
2013-01-17 03:28:00,33.6,30.1,30.09,WSW,258,1.0,2.0,87,0.00,,,0.00,0,Wunderground v.1.15,2013-01-17 08:28:00,
2013-01-17 03:33:00,33.6,29.9,30.09,WSW,258,0.0,1.0,86,0.00,,,0.00,0,Wunderground v.1.15,2013-01-17 08:33:00,
2013-01-17 03:38:00,33.6,30.1,30.09,WSW,258,0.0,1.0,87,0.00,,,0.00,0,Wunderground v.1.15,2013-01-17 08:38:00,
2013-01-17 03:44:00,33.5,30.0,30.09,West,267,0.0,1.0,87,0.00,,,0.00,0,Wunderground v.1.15,2013-01-17 08:44:00,
2013-01-17 03:49:00,33.5,30.0,30.10,WSW,255,1.0,6.0,87,0.00,,,0.00,0,Wunderground v.1.15,2013-01-17 08:49:00,
2013-01-17 03:54:00,33.5,30.0,30.10,SW,228,1.0,4.0,87,0.00,,,0.00,0,Wunderground v.1.15,2013-01-17 08:54:00,
2013-01-17 04:00:00,33.5,29.8,30.10,West,277,1.0,1.0,86,0.00,,,0.00,0,Wunderground v.1.15,2013-01-17 09:00:00,
2013-01-17 04:06:00,33.5,30.0,30.10,SSW,212,1.0,2.0,87,0.00,,,0.00,0,Wunderground v.1.15,2013-01-17 09:06:00,
2013-01-17 04:11:00,33.5,29.8,30.10,SW,236,1.0,4.0,86,0.00,,,0.00,0,Wunderground v.1.15,2013-01-17 09:11:00,
2013-01-17 04:17:00,33.5,29.8,30.10,WSW,254,2.0,5.0,86,0.00,,,0.00,0,Wunderground v.1.15,2013-01-17 09:17:00,
2013-01-17 04:22:00,33.5,29.8,30.10,NW,317,1.0,3.0,86,0.00,,,0.00,0,Wunderground v.1.15,2013-01-17 09:22:00,
2013-01-17 04:28:00,33.5,29.8,30.10,West,272,1.0,5.0,86,0.00,,,0.00,0,Wunderground v.1.15,2013-01-17 09:28:00,
2013-01-17 04:34:00,33.4,29.7,30.11,WNW,297,1.0,3.0,86,0.00,,,0.00,0,Wunderground v.1.15,2013-01-17 09:34:00,
2013-01-17 04:40:00,33.4,29.7,30.10,West,272,1.0,1.0,86,0.00,,,0.00,0,Wunderground v.1.15,2013-01-17 09:40:00,
2013-01-17 04:46:00,33.4,29.7,30.11,West,272,0.0,1.0,86,0.00,,,0.00,0,Wunderground v.1.15,2013-01-17 09:46:00,
2013-01-17 04:52:00,33.4,29.9,30.11,WNW,302,0.0,1.0,87,0.00,,,0.00,0,Wunderground v.1.15,2013-01-17 09:52:00,
2013-01-17 04:57:00,33.3,29.8,30.11,West,279,0.0,3.0,87,0.00,,,0.00,0,Wunderground v.1.15,2013-01-17 09:57:00,
2013-01-17 05:03:00,33.3,29.8,30.11,West,279,0.0,0.0,87,0.00,,,0.00,0,Wunderground v.1.15,2013-01-17 10:03:00,
2013-01-17 05:09:00,33.3,29.8,30.11,WNW,292,0.0,1.0,87,0.00,,,0.00,0,Wunderground v.1.15,2013-01-17 10:09:00,
2013-01-17 05:15:00,33.2,29.8,30.11,WSW,252,0.0,3.0,87,0.00,,,0.00,0,Wunderground v.1.15,2013-01-17 10:15:00,
2013-01-17 05:21:00,33.2,29.8,30.11,West,261,0.0,0.0,87,0.00,,,0.00,0,Wunderground v.1.15,2013-01-17 10:21:00,
2013-01-17 05:26:00,33.2,29.8,30.11,West,264,0.0,0.0,87,0.00,,,0.00,0,Wunderground v.1.15,2013-01-17 10:26:00,
2013-01-17 05:32:00,33.2,29.8,30.11,WNW,282,0.0,1.0,87,0.00,,,0.00,0,Wunderground v.1.15,2013-01-17 10:32:00,
2013-01-17 05:38:00,33.1,29.7,30.11,WNW,300,1.0,2.0,87,0.00,,,0.00,0,Wunderground v.1.15,2013-01-17 10:38:00,
2013-01-17 05:43:00,33.1,29.7,30.12,WNW,300,0.0,1.0,87,0.00,,,0.00,0,Wunderground v.1.15,2013-01-17 10:43:00,
2013-01-17 05:49:00,33.1,29.7,30.12,WNW,298,0.0,1.0,87,0.00,,,0.00,0,Wunderground v.1.15,2013-01-17 10:49:00,
2013-01-17 05:55:00,33.0,29.6,30.12,WNW,298,0.0,0.0,87,0.00,,,0.00,0,Wunderground v.1.15,2013-01-17 10:55:00,
2013-01-17 06:00:00,33.0,29.6,30.12,WNW,298,0.0,0.0,87,0.00,,,0.00,0,Wunderground v.1.15,2013-01-17 11:00:00,
2013-01-17 06:06:00,33.0,29.6,30.13,WNW,298,0.0,1.0,87,0.00,,,0.00,0,Wunderground v.1.15,2013-01-17 11:06:00,
2013-01-17 06:11:00,33.0,29.6,30.12,WNW,298,0.0,0.0,87,0.00,,,0.00,0,Wunderground v.1.15,2013-01-17 11:11:00,
2013-01-17 06:17:00,32.9,29.5,30.12,WNW,298,0.0,0.0,87,0.00,,,0.00,0,Wunderground v.1.15,2013-01-17 11:17:00,
2013-01-17 06:22:00,32.9,29.5,30.12,WNW,298,0.0,0.0,87,0.00,,,0.00,0,Wunderground v.1.15,2013-01-17 11:22:00,
2013-01-17 06:28:00,32.9,29.5,30.13,WNW,298,0.0,0.0,87,0.00,,,0.00,0,Wunderground v.1.15,2013-01-17 11:28:00,
2013-01-17 06:34:00,32.9,29.7,30.13,WNW,298,0.0,2.0,88,0.00,,,0.00,0,Wunderground v.1.15,2013-01-17 11:34:00,
2013-01-17 06:39:00,32.9,29.7,30.13,WNW,298,0.0,2.0,88,0.00,,,0.00,0,Wunderground v.1.15,2013-01-17 11:39:00,
2013-01-17 06:44:00,32.9,29.7,30.13,WNW,298,0.0,3.0,88,0.00,,,0.00,0,Wunderground v.1.15,2013-01-17 11:44:00,
2013-01-17 06:50:00,32.9,29.7,30.13,WNW,298,0.0,0.0,88,0.00,,,0.00,0,Wunderground v.1.15,2013-01-17 11:50:00,
2013-01-17 06:55:00,32.9,29.7,30.13,WNW,298,0.0,1.0,88,0.00,,,0.00,0,Wunderground v.1.15,2013-01-17 11:55:00,
2013-01-17 07:00:00,32.9,29.7,30.13,WNW,298,0.0,0.0,88,0.00,,,0.00,0,Wunderground v.1.15,2013-01-17 12:00:00,
2013-01-17 07:06:00,32.8,29.6,30.13,WNW,284,0.0,2.0,88,0.00,,,0.00,0,Wunderground v.1.15,2013-01-17 12:06:00,
2013-01-17 07:12:00,32.8,29.6,30.13,WNW,284,0.0,0.0,88,0.00,,,0.00,0,Wunderground v.1.15,2013-01-17 12:12:00,
2013-01-17 07:18:00,32.7,29.5,30.14,WNW,284,0.0,1.0,88,0.00,,,0.00,0,Wunderground v.1.15,2013-01-17 12:18:00,
2013-01-17 07:23:00,32.7,29.5,30.13,WNW,284,0.0,0.0,88,0.00,,,0.00,0,Wunderground v.1.15,2013-01-17 12:23:00,
2013-01-17 07:29:00,32.6,29.4,30.13,WNW,284,0.0,0.0,88,0.00,,,0.00,0,Wunderground v.1.15,2013-01-17 12:29:00,
2013-01-17 07:35:00,32.6,29.4,30.13,NNW,329,0.0,1.0,88,0.00,,,0.00,0,Wunderground v.1.15,2013-01-17 12:35:00,
2013-01-17 07:41:00,32.6,29.7,30.14,NNW,329,0.0,0.0,89,0.00,,,0.00,0,Wunderground v.1.15,2013-01-17 12:41:00,
2013-01-17 07:47:00,32.5,29.6,30.14,NNW,329,0.0,0.0,89,0.00,,,0.00,0,Wunderground v.1.15,2013-01-17 12:47:00,
2013-01-17 07:52:00,32.4,29.5,30.14,NNW,329,0.0,0.0,89,0.00,,,0.00,0,Wunderground v.1.15,2013-01-17 12:52:00,
2013-01-17 07:58:00,32.4,29.5,30.14,NNW,329,0.0,0.0,89,0.00,,,0.00,0,Wunderground v.1.15,2013-01-17 12:58:00,
2013-01-17 08:03:00,32.4,29.5,30.15,NNW,329,0.0,0.0,89,0.00,,,0.00,0,Wunderground v.1.15,2013-01-17 13:03:00,
2013-01-17 08:09:00,32.4,29.5,30.15,NNW,329,0.0,0.0,89,0.00,,,0.00,5,Wunderground v.1.15,2013-01-17 13:09:00,
2013-01-17 08:14:00,32.4,29.5,30.16,NNW,329,0.0,0.0,89,0.00,,,0.00,7,Wunderground v.1.15,2013-01-17 13:14:00,
2013-01-17 08:20:00,32.5,29.6,30.16,West,260,0.0,0.0,89,0.00,,,0.00,12,Wunderground v.1.15,2013-01-17 13:20:00,
2013-01-17 08:26:00,32.6,29.7,30.16,WSW,237,1.0,2.0,89,0.00,,,0.00,16,Wunderground v.1.15,2013-01-17 13:26:00,
2013-01-17 08:32:00,32.6,29.7,30.17,WSW,237,0.0,1.0,89,0.00,,,0.00,19,Wunderground v.1.15,2013-01-17 13:32:00,
2013-01-17 08:38:00,32.7,29.8,30.17,WSW,237,0.0,1.0,89,0.00,,,0.00,19,Wunderground v.1.15,2013-01-17 13:38:00,
2013-01-17 08:43:00,32.7,29.8,30.18,WSW,237,0.0,0.0,89,0.00,,,0.00,19,Wunderground v.1.15,2013-01-17 13:43:00,
2013-01-17 08:49:00,32.7,29.8,30.18,SW,219,0.0,2.0,89,0.00,,,0.00,18,Wunderground v.1.15,2013-01-17 13:49:00,
2013-01-17 08:54:00,32.8,29.9,30.18,SW,219,0.0,0.0,89,0.00,,,0.00,18,Wunderground v.1.15,2013-01-17 13:54:00,
2013-01-17 08:59:00,32.8,29.9,30.19,SW,219,0.0,0.0,89,0.00,,,0.00,16,Wunderground v.1.15,2013-01-17 13:59:00,
2013-01-17 09:05:00,32.8,29.9,30.19,SW,219,0.0,1.0,89,0.00,,,0.00,18,Wunderground v.1.15,2013-01-17 14:05:00,
2013-01-17 09:10:00,32.8,29.9,30.20,SW,219,0.0,0.0,89,0.00,,,0.00,18,Wunderground v.1.15,2013-01-17 14:10:00,
2013-01-17 09:15:00,32.8,29.9,30.20,SW,219,0.0,2.0,89,0.00,,,0.00,16,Wunderground v.1.15,2013-01-17 14:15:00,
2013-01-17 09:21:00,32.8,29.9,30.20,SW,219,0.0,0.0,89,0.00,,,0.00,16,Wunderground v.1.15,2013-01-17 14:21:00,
2013-01-17 09:26:00,32.9,30.0,30.20,SW,219,0.0,0.0,89,0.00,,,0.00,19,Wunderground v.1.15,2013-01-17 14:26:00,
2013-01-17 09:32:00,32.9,30.0,30.21,SW,219,0.0,0.0,89,0.00,,,0.00,21,Wunderground v.1.15,2013-01-17 14:32:00,
2013-01-17 09:38:00,32.9,30.0,30.20,SW,219,0.0,0.0,89,0.00,,,0.00,25,Wunderground v.1.15,2013-01-17 14:38:00,
2013-01-17 09:44:00,33.0,30.1,30.21,SW,219,0.0,0.0,89,0.00,,,0.00,23,Wunderground v.1.15,2013-01-17 14:44:00,
2013-01-17 09:50:00,33.0,30.1,30.20,SW,219,0.0,0.0,89,0.00,,,0.00,35,Wunderground v.1.15,2013-01-17 14:50:00,
2013-01-17 09:55:00,33.0,30.1,30.21,SW,219,0.0,0.0,89,0.00,,,0.00,30,Wunderground v.1.15,2013-01-17 14:55:00,
2013-01-17 10:00:00,33.1,30.2,30.21,SW,219,0.0,0.0,89,0.00,,,0.00,37,Wunderground v.1.15,2013-01-17 15:00:00,
2013-01-17 10:06:00,33.1,30.2,30.20,SW,219,0.0,0.0,89,0.00,,,0.00,39,Wunderground v.1.15,2013-01-17 15:06:00,
2013-01-17 10:11:00,33.2,30.3,30.20,SW,219,0.0,0.0,89,0.00,,,0.00,42,Wunderground v.1.15,2013-01-17 15:11:00,
2013-01-17 10:17:00,33.2,30.3,30.20,SW,219,0.0,0.0,89,0.00,,,0.00,44,Wunderground v.1.15,2013-01-17 15:17:00,
2013-01-17 10:23:00,33.3,30.4,30.20,SW,219,0.0,0.0,89,0.00,,,0.00,53,Wunderground v.1.15,2013-01-17 15:23:00,
2013-01-17 10:29:00,33.3,30.4,30.20,SW,219,0.0,0.0,89,0.00,,,0.00,49,Wunderground v.1.15,2013-01-17 15:29:00,
2013-01-17 10:34:00,33.4,30.5,30.20,SW,219,0.0,0.0,89,0.00,,,0.00,56,Wunderground v.1.15,2013-01-17 15:34:00,
2013-01-17 10:40:00,33.5,30.6,30.20,SW,219,0.0,0.0,89,0.00,,,0.00,63,Wunderground v.1.15,2013-01-17 15:40:00,
2013-01-17 10:45:00,33.6,30.7,30.20,SW,219,0.0,0.0,89,0.00,,,0.00,63,Wunderground v.1.15,2013-01-17 15:45:00,
2013-01-17 10:51:00,33.7,30.5,30.20,SW,219,0.0,0.0,88,0.00,,,0.00,54,Wunderground v.1.15,2013-01-17 15:51:00,
2013-01-17 10:56:00,33.8,30.6,30.20,SW,219,0.0,0.0,88,0.00,,,0.00,53,Wunderground v.1.15,2013-01-17 15:56:00,
2013-01-17 11:01:00,33.8,30.6,30.20,SW,219,0.0,0.0,88,0.00,,,0.00,62,Wunderground v.1.15,2013-01-17 16:01:00,
2013-01-17 11:07:00,33.9,30.4,30.20,SW,219,0.0,0.0,87,0.00,,,0.00,58,Wunderground v.1.15,2013-01-17 16:07:00,
2013-01-17 11:13:00,34.0,30.5,30.19,SW,219,0.0,0.0,87,0.00,,,0.00,69,Wunderground v.1.15,2013-01-17 16:13:00,
2013-01-17 11:19:00,34.1,30.9,30.18,SW,219,0.0,0.0,88,0.00,,,0.00,97,Wunderground v.1.15,2013-01-17 16:19:00,
2013-01-17 11:25:00,34.1,30.9,30.18,SSW,207,0.0,4.0,88,0.00,,,0.00,93,Wunderground v.1.15,2013-01-17 16:25:00,
2013-01-17 11:30:00,34.2,31.0,30.18,SSW,207,1.0,1.0,88,0.00,,,0.00,105,Wunderground v.1.15,2013-01-17 16:30:00,
2013-01-17 11:35:00,34.2,30.7,30.17,SSW,207,1.0,1.0,87,0.00,,,0.00,104,Wunderground v.1.15,2013-01-17 16:35:00,
2013-01-17 11:40:00,34.4,31.2,30.16,SSW,207,0.0,0.0,88,0.00,,,0.00,118,Wunderground v.1.15,2013-01-17 16:40:00,
2013-01-17 11:45:00,34.5,31.3,30.16,SSW,207,0.0,0.0,88,0.00,,,0.00,135,Wunderground v.1.15,2013-01-17 16:45:00,
2013-01-17 11:51:00,34.6,31.1,30.15,SSW,207,0.0,2.0,87,0.00,,,0.00,137,Wunderground v.1.15,2013-01-17 16:51:00,
2013-01-17 11:56:00,34.7,31.2,30.15,SSW,207,0.0,2.0,87,0.00,,,0.00,132,Wunderground v.1.15,2013-01-17 16:56:00,
2013-01-17 12:02:00,34.8,31.3,30.15,SSW,207,0.0,0.0,87,0.00,,,0.00,128,Wunderground v.1.15,2013-01-17 17:02:00,
2013-01-17 12:08:00,35.0,31.2,30.14,SSW,207,0.0,0.0,86,0.00,,,0.00,134,Wunderground v.1.15,2013-01-17 17:08:00,
2013-01-17 12:14:00,35.1,31.3,30.14,SSW,207,0.0,0.0,86,0.00,,,0.00,127,Wunderground v.1.15,2013-01-17 17:14:00,
2013-01-17 12:19:00,35.2,31.4,30.14,West,277,0.0,4.0,86,0.00,,,0.00,118,Wunderground v.1.15,2013-01-17 17:19:00,
2013-01-17 12:24:00,35.2,31.1,30.13,West,259,1.0,1.0,85,0.00,,,0.00,105,Wunderground v.1.15,2013-01-17 17:24:00,
2013-01-17 12:30:00,35.3,31.2,30.13,WNW,296,0.0,0.0,85,0.00,,,0.00,84,Wunderground v.1.15,2013-01-17 17:30:00,
2013-01-17 12:35:00,35.3,31.2,30.13,WNW,296,0.0,1.0,85,0.00,,,0.00,88,Wunderground v.1.15,2013-01-17 17:35:00,
2013-01-17 12:40:00,35.3,31.2,30.13,WNW,296,0.0,0.0,85,0.00,,,0.00,105,Wunderground v.1.15,2013-01-17 17:40:00,
2013-01-17 12:46:00,35.3,30.9,30.13,WSW,240,1.0,4.0,84,0.00,,,0.00,114,Wunderground v.1.15,2013-01-17 17:46:00,
2013-01-17 12:51:00,35.3,31.2,30.12,West,261,1.0,1.0,85,0.00,,,0.00,137,Wunderground v.1.15,2013-01-17 17:51:00,
2013-01-17 12:56:00,35.4,31.0,30.12,West,261,0.0,1.0,84,0.00,,,0.00,142,Wunderground v.1.15,2013-01-17 17:56:00,
2013-01-17 13:02:00,35.4,31.0,30.12,West,261,0.0,0.0,84,0.00,,,0.00,118,Wunderground v.1.15,2013-01-17 18:02:00,
2013-01-17 13:08:00,35.4,31.0,30.12,West,261,0.0,0.0,84,0.00,,,0.00,111,Wunderground v.1.15,2013-01-17 18:08:00,
2013-01-17 13:13:00,35.5,31.4,30.13,West,261,0.0,2.0,85,0.00,,,0.00,120,Wunderground v.1.15,2013-01-17 18:13:00,
2013-01-17 13:18:00,35.5,31.1,30.13,WSW,248,1.0,2.0,84,0.00,,,0.00,139,Wunderground v.1.15,2013-01-17 18:18:00,
2013-01-17 13:24:00,35.6,31.2,30.13,SW,235,1.0,4.0,84,0.00,,,0.00,120,Wunderground v.1.15,2013-01-17 18:24:00,
2013-01-17 13:29:00,35.7,31.3,30.13,WSW,240,1.0,4.0,84,0.00,,,0.00,114,Wunderground v.1.15,2013-01-17 18:29:00,
2013-01-17 13:34:00,35.7,31.3,30.13,WSW,240,1.0,1.0,84,0.00,,,0.00,90,Wunderground v.1.15,2013-01-17 18:34:00,
2013-01-17 13:40:00,35.6,30.9,30.12,WSW,240,0.0,0.0,83,0.00,,,0.00,65,Wunderground v.1.15,2013-01-17 18:40:00,
2013-01-17 13:45:00,35.6,31.2,30.12,WSW,240,0.0,1.0,84,0.00,,,0.00,53,Wunderground v.1.15,2013-01-17 18:45:00,
2013-01-17 13:51:00,35.6,30.9,30.11,WSW,240,0.0,0.0,83,0.00,,,0.00,60,Wunderground v.1.15,2013-01-17 18:51:00,
2013-01-17 13:57:00,35.5,31.1,30.11,WSW,240,0.0,0.0,84,0.00,,,0.00,69,Wunderground v.1.15,2013-01-17 18:57:00,
2013-01-17 14:03:00,35.6,31.2,30.12,WSW,240,0.0,0.0,84,0.00,,,0.00,76,Wunderground v.1.15,2013-01-17 19:03:00,
2013-01-17 14:08:00,35.6,30.6,30.11,WSW,240,0.0,0.0,82,0.00,,,0.00,63,Wunderground v.1.15,2013-01-17 19:08:00,
2013-01-17 14:14:00,35.7,30.7,30.11,WSW,240,0.0,0.0,82,0.00,,,0.00,58,Wunderground v.1.15,2013-01-17 19:14:00,
2013-01-17 14:20:00,35.7,30.7,30.11,WSW,240,0.0,0.0,82,0.00,,,0.00,47,Wunderground v.1.15,2013-01-17 19:20:00,
2013-01-17 14:26:00,35.7,31.0,30.12,WSW,240,0.0,0.0,83,0.00,,,0.00,46,Wunderground v.1.15,2013-01-17 19:26:00,
2013-01-17 14:32:00,35.7,31.0,30.12,WSW,240,0.0,0.0,83,0.00,,,0.00,56,Wunderground v.1.15,2013-01-17 19:32:00,
2013-01-17 14:37:00,35.7,30.7,30.11,WSW,240,0.0,0.0,82,0.00,,,0.00,76,Wunderground v.1.15,2013-01-17 19:37:00,
2013-01-17 14:42:00,35.7,31.0,30.11,WSW,240,0.0,0.0,83,0.00,,,0.00,93,Wunderground v.1.15,2013-01-17 19:42:00,
2013-01-17 14:48:00,35.8,31.1,30.12,WSW,258,0.0,2.0,83,0.00,,,0.00,86,Wunderground v.1.15,2013-01-17 19:48:00,
2013-01-17 14:53:00,35.9,31.2,30.12,WSW,258,0.0,2.0,83,0.00,,,0.00,81,Wunderground v.1.15,2013-01-17 19:53:00,
2013-01-17 14:58:00,35.9,31.2,30.12,WSW,258,0.0,2.0,83,0.00,,,0.00,76,Wunderground v.1.15,2013-01-17 19:58:00,
2013-01-17 15:04:00,36.0,31.3,30.11,WSW,258,0.0,0.0,83,0.00,,,0.00,70,Wunderground v.1.15,2013-01-17 20:04:00,
2013-01-17 15:10:00,36.0,31.3,30.12,WSW,258,0.0,0.0,83,0.00,,,0.00,67,Wunderground v.1.15,2013-01-17 20:10:00,
2013-01-17 15:16:00,35.9,30.9,30.13,WSW,258,0.0,0.0,82,0.00,,,0.01,63,Wunderground v.1.15,2013-01-17 20:16:00,
2013-01-17 15:22:00,35.9,30.9,30.13,WSW,258,0.0,0.0,82,0.00,,,0.01,58,Wunderground v.1.15,2013-01-17 20:22:00,
2013-01-17 15:28:00,35.7,30.7,30.13,WSW,258,0.0,2.0,82,0.00,,,0.01,49,Wunderground v.1.15,2013-01-17 20:28:00,
2013-01-17 15:33:00,35.6,30.6,30.13,SSW,199,1.0,1.0,82,0.00,,,0.01,46,Wunderground v.1.15,2013-01-17 20:33:00,
2013-01-17 15:39:00,35.5,30.8,30.12,SSW,199,0.0,1.0,83,0.00,,,0.01,42,Wunderground v.1.15,2013-01-17 20:39:00,
2013-01-17 15:45:00,35.4,30.8,30.12,SSW,199,0.0,0.0,83,0.00,,,0.01,39,Wunderground v.1.15,2013-01-17 20:45:00,
2013-01-17 15:51:00,35.3,30.7,30.13,SSW,199,0.0,0.0,83,0.00,,,0.01,37,Wunderground v.1.15,2013-01-17 20:51:00,
2013-01-17 15:56:00,35.3,30.7,30.12,SSW,199,0.0,0.0,83,0.00,,,0.01,35,Wunderground v.1.15,2013-01-17 20:56:00,
2013-01-17 16:02:00,35.2,30.6,30.13,SSW,199,0.0,0.0,83,0.00,,,0.02,32,Wunderground v.1.15,2013-01-17 21:02:00,
2013-01-17 16:08:00,35.2,30.9,30.13,SSW,199,0.0,0.0,84,0.00,,,0.02,26,Wunderground v.1.15,2013-01-17 21:08:00,
2013-01-17 16:14:00,35.1,30.5,30.13,SSW,199,0.0,0.0,83,0.00,,,0.02,23,Wunderground v.1.15,2013-01-17 21:14:00,
2013-01-17 16:19:00,35.0,30.7,30.13,SSW,199,0.0,0.0,84,0.00,,,0.02,21,Wunderground v.1.15,2013-01-17 21:19:00,
2013-01-17 16:25:00,34.9,30.6,30.13,SSW,199,0.0,0.0,84,0.00,,,0.02,18,Wunderground v.1.15,2013-01-17 21:25:00,
2013-01-17 16:30:00,34.8,30.5,30.12,SSW,199,0.0,0.0,84,0.00,,,0.02,18,Wunderground v.1.15,2013-01-17 21:30:00,
2013-01-17 16:35:00,34.7,30.7,30.13,SSW,199,0.0,0.0,85,0.00,,,0.02,16,Wunderground v.1.15,2013-01-17 21:35:00,
2013-01-17 16:41:00,34.6,30.8,30.13,SSW,199,0.0,0.0,86,0.00,,,0.02,14,Wunderground v.1.15,2013-01-17 21:41:00,
2013-01-17 16:47:00,34.4,30.4,30.13,SSW,199,0.0,0.0,85,0.00,,,0.02,11,Wunderground v.1.15,2013-01-17 21:47:00,
2013-01-17 16:52:00,34.3,30.5,30.13,SSW,199,0.0,0.0,86,0.00,,,0.02,9,Wunderground v.1.15,2013-01-17 21:52:00,
2013-01-17 16:57:00,34.2,30.4,30.13,SSW,199,0.0,0.0,86,0.00,,,0.02,7,Wunderground v.1.15,2013-01-17 21:57:00,
2013-01-17 17:03:00,34.1,30.4,30.13,SSW,199,0.0,0.0,86,0.00,,,0.02,5,Wunderground v.1.15,2013-01-17 22:03:00,
2013-01-17 17:08:00,34.0,30.3,30.13,SSW,199,0.0,0.0,86,0.00,,,0.02,0,Wunderground v.1.15,2013-01-17 22:08:00,
2013-01-17 17:14:00,33.8,30.1,30.14,SSW,199,0.0,0.0,86,0.00,,,0.02,0,Wunderground v.1.15,2013-01-17 22:14:00,
2013-01-17 17:20:00,33.7,30.2,30.14,SSW,199,0.0,0.0,87,0.00,,,0.02,0,Wunderground v.1.15,2013-01-17 22:20:00,
2013-01-17 17:25:00,33.5,30.0,30.15,SSW,199,0.0,0.0,87,0.00,,,0.02,0,Wunderground v.1.15,2013-01-17 22:25:00,
2013-01-17 17:31:00,33.4,29.9,30.15,SSW,199,0.0,0.0,87,0.00,,,0.02,0,Wunderground v.1.15,2013-01-17 22:31:00,
2013-01-17 17:37:00,33.2,29.8,30.16,SSW,199,0.0,0.0,87,0.00,,,0.02,0,Wunderground v.1.15,2013-01-17 22:37:00,
2013-01-17 17:42:00,33.1,29.9,30.16,SSW,199,0.0,0.0,88,0.00,,,0.02,0,Wunderground v.1.15,2013-01-17 22:42:00,
2013-01-17 17:48:00,33.0,29.8,30.15,SSW,199,0.0,0.0,88,0.00,,,0.02,0,Wunderground v.1.15,2013-01-17 22:48:00,
2013-01-17 17:54:00,32.9,29.7,30.16,SSW,199,0.0,0.0,88,0.00,,,0.02,0,Wunderground v.1.15,2013-01-17 22:54:00,
2013-01-17 18:00:00,32.9,29.7,30.16,SSW,199,0.0,0.0,88,0.00,,,0.02,0,Wunderground v.1.15,2013-01-17 23:00:00,
2013-01-17 18:05:00,32.8,29.6,30.16,SSW,199,0.0,0.0,88,0.00,,,0.02,0,Wunderground v.1.15,2013-01-17 23:05:00,
2013-01-17 18:11:00,32.7,29.5,30.16,SSW,199,0.0,0.0,88,0.00,,,0.02,0,Wunderground v.1.15,2013-01-17 23:11:00,
2013-01-17 18:17:00,32.6,29.4,30.16,SSW,199,0.0,0.0,88,0.00,,,0.02,0,Wunderground v.1.15,2013-01-17 23:17:00,
2013-01-17 18:22:00,32.5,29.6,30.15,SSW,199,0.0,0.0,89,0.00,,,0.02,0,Wunderground v.1.15,2013-01-17 23:22:00,
2013-01-17 18:28:00,32.5,29.6,30.15,SSW,199,0.0,0.0,89,0.00,,,0.02,0,Wunderground v.1.15,2013-01-17 23:28:00,
2013-01-17 18:34:00,32.4,29.5,30.16,SSW,199,0.0,0.0,89,0.00,,,0.02,0,Wunderground v.1.15,2013-01-17 23:34:00,
2013-01-17 18:39:00,32.4,29.5,30.16,SSW,199,0.0,0.0,89,0.00,,,0.02,0,Wunderground v.1.15,2013-01-17 23:39:00,
2013-01-17 18:45:00,32.4,29.5,30.17,SSW,199,0.0,0.0,89,0.00,,,0.02,0,Wunderground v.1.15,2013-01-17 23:45:00,
2013-01-17 18:50:00,32.5,29.9,30.15,SSW,199,0.0,0.0,90,0.00,,,0.02,0,Wunderground v.1.15,2013-01-17 23:50:00,
2013-01-17 18:56:00,32.5,29.9,30.15,SSW,199,0.0,0.0,90,0.00,,,0.02,0,Wunderground v.1.15,2013-01-17 23:56:00,
2013-01-17 19:02:00,32.5,29.9,30.15,SSW,199,0.0,0.0,90,0.00,,,0.02,0,Wunderground v.1.15,2013-01-18 00:02:00,
2013-01-17 19:07:00,32.5,29.9,30.16,SSW,199,0.0,0.0,90,0.00,,,0.02,0,Wunderground v.1.15,2013-01-18 00:07:00,
2013-01-17 19:13:00,32.5,29.9,30.15,SSW,199,0.0,0.0,90,0.00,,,0.02,0,Wunderground v.1.15,2013-01-18 00:13:00,
2013-01-17 19:18:00,32.4,29.8,30.15,SSW,199,0.0,0.0,90,0.00,,,0.02,0,Wunderground v.1.15,2013-01-18 00:18:00,
2013-01-17 19:24:00,32.4,30.1,30.17,SSW,199,0.0,0.0,91,0.00,,,0.02,0,Wunderground v.1.15,2013-01-18 00:24:00,
2013-01-17 19:30:00,32.3,30.0,30.17,SSW,199,0.0,0.0,91,0.00,,,0.02,0,Wunderground v.1.15,2013-01-18 00:30:00,
2013-01-17 19:36:00,32.3,30.0,30.17,SSW,199,0.0,0.0,91,0.00,,,0.02,0,Wunderground v.1.15,2013-01-18 00:36:00,
2013-01-17 19:41:00,32.2,29.9,30.18,SSW,199,0.0,0.0,91,0.00,,,0.02,0,Wunderground v.1.15,2013-01-18 00:41:00,
2013-01-17 19:47:00,32.2,29.9,30.18,SSW,199,0.0,0.0,91,0.00,,,0.02,0,Wunderground v.1.15,2013-01-18 00:47:00,
2013-01-17 19:52:00,32.2,29.9,30.18,SSW,199,0.0,0.0,91,0.00,,,0.02,0,Wunderground v.1.15,2013-01-18 00:52:00,
2013-01-17 19:58:00,32.2,29.9,30.17,SSW,199,0.0,1.0,91,0.00,,,0.02,0,Wunderground v.1.15,2013-01-18 00:58:00,
2013-01-17 20:03:00,32.2,29.9,30.16,SSW,199,0.0,0.0,91,0.00,,,0.02,0,Wunderground v.1.15,2013-01-18 01:03:00,
2013-01-17 20:09:00,32.2,29.9,30.16,SSW,199,0.0,0.0,91,0.00,,,0.02,0,Wunderground v.1.15,2013-01-18 01:09:00,
2013-01-17 20:15:00,32.2,29.6,30.17,West,267,0.0,1.0,90,0.00,,,0.02,0,Wunderground v.1.15,2013-01-18 01:15:00,
2013-01-17 20:20:00,32.2,29.6,30.18,West,275,0.0,0.0,90,0.00,,,0.02,0,Wunderground v.1.15,2013-01-18 01:20:00,
2013-01-17 20:26:00,32.2,29.6,30.18,West,275,0.0,0.0,90,0.00,,,0.02,0,Wunderground v.1.15,2013-01-18 01:26:00,
2013-01-17 20:32:00,32.2,29.6,30.18,West,275,0.0,0.0,90,0.00,,,0.02,0,Wunderground v.1.15,2013-01-18 01:32:00,
2013-01-17 20:37:00,32.2,29.6,30.17,West,275,0.0,0.0,90,0.00,,,0.02,0,Wunderground v.1.15,2013-01-18 01:37:00,
2013-01-17 20:42:00,32.2,29.6,30.17,West,275,0.0,0.0,90,0.00,,,0.02,0,Wunderground v.1.15,2013-01-18 01:42:00,
2013-01-17 20:48:00,32.3,29.7,30.16,West,275,0.0,0.0,90,0.00,,,0.02,0,Wunderground v.1.15,2013-01-18 01:48:00,
2013-01-17 20:54:00,32.2,29.6,30.16,West,275,0.0,0.0,90,0.00,,,0.02,0,Wunderground v.1.15,2013-01-18 01:54:00,
2013-01-17 21:00:00,32.2,29.6,30.17,West,275,0.0,0.0,90,0.00,,,0.02,0,Wunderground v.1.15,2013-01-18 02:00:00,
2013-01-17 21:06:00,32.1,29.5,30.16,West,275,0.0,0.0,90,0.00,,,0.02,0,Wunderground v.1.15,2013-01-18 02:06:00,
2013-01-17 21:12:00,32.1,29.5,30.16,West,275,0.0,0.0,90,0.00,,,0.02,0,Wunderground v.1.15,2013-01-18 02:12:00,
2013-01-17 21:18:00,32.1,29.8,30.16,West,275,0.0,0.0,91,0.00,,,0.02,0,Wunderground v.1.15,2013-01-18 02:18:00,
2013-01-17 21:23:00,32.0,29.7,30.15,West,275,0.0,0.0,91,0.00,,,0.02,0,Wunderground v.1.15,2013-01-18 02:23:00,
2013-01-17 21:29:00,32.0,29.7,30.16,West,275,0.0,1.0,91,0.00,,,0.02,0,Wunderground v.1.15,2013-01-18 02:29:00,
2013-01-17 21:34:00,32.0,29.7,30.16,West,275,0.0,0.0,91,0.00,,,0.02,0,Wunderground v.1.15,2013-01-18 02:34:00,
2013-01-17 21:40:00,32.0,29.7,30.16,West,275,0.0,0.0,91,0.00,,,0.02,0,Wunderground v.1.15,2013-01-18 02:40:00,
2013-01-17 21:46:00,32.0,29.7,30.17,West,275,0.0,0.0,91,0.00,,,0.02,0,Wunderground v.1.15,2013-01-18 02:46:00,
2013-01-17 21:51:00,31.9,29.6,30.16,West,275,0.0,0.0,91,0.00,,,0.02,0,Wunderground v.1.15,2013-01-18 02:51:00,
2013-01-17 21:57:00,31.8,29.5,30.15,West,275,0.0,1.0,91,0.00,,,0.02,0,Wunderground v.1.15,2013-01-18 02:57:00,
2013-01-17 22:03:00,31.7,29.4,30.15,West,275,0.0,0.0,91,0.00,,,0.02,0,Wunderground v.1.15,2013-01-18 03:03:00,
2013-01-17 22:08:00,31.6,29.3,30.15,West,275,0.0,0.0,91,0.00,,,0.02,0,Wunderground v.1.15,2013-01-18 03:08:00,
2013-01-17 22:14:00,31.5,29.2,30.15,West,275,0.0,0.0,91,0.00,,,0.02,0,Wunderground v.1.15,2013-01-18 03:14:00,
2013-01-17 22:20:00,31.4,29.1,30.15,West,275,0.0,0.0,91,0.00,,,0.02,0,Wunderground v.1.15,2013-01-18 03:20:00,
2013-01-17 22:25:00,31.2,28.9,30.15,West,275,0.0,0.0,91,0.00,,,0.02,0,Wunderground v.1.15,2013-01-18 03:25:00,
2013-01-17 22:31:00,31.1,28.8,30.15,West,275,0.0,0.0,91,0.00,,,0.02,0,Wunderground v.1.15,2013-01-18 03:31:00,
2013-01-17 22:36:00,30.9,28.6,30.15,West,275,0.0,0.0,91,0.00,,,0.02,0,Wunderground v.1.15,2013-01-18 03:36:00,
2013-01-17 22:42:00,30.7,28.4,30.15,West,275,0.0,0.0,91,0.00,,,0.02,0,Wunderground v.1.15,2013-01-18 03:42:00,
2013-01-17 22:47:00,30.6,28.3,30.15,West,275,0.0,0.0,91,0.00,,,0.02,0,Wunderground v.1.15,2013-01-18 03:47:00,
2013-01-17 22:52:00,30.7,28.7,30.15,WNW,290,1.0,4.0,92,0.00,,,0.02,0,Wunderground v.1.15,2013-01-18 03:52:00,
2013-01-17 22:58:00,31.2,29.4,30.14,West,278,2.0,5.0,93,0.00,,,0.02,0,Wunderground v.1.15,2013-01-18 03:58:00,
2013-01-17 23:04:00,31.6,29.5,30.14,West,275,1.0,2.0,92,0.00,,,0.02,0,Wunderground v.1.15,2013-01-18 04:04:00,
2013-01-17 23:10:00,31.8,29.7,30.14,West,275,0.0,0.0,92,0.00,,,0.02,0,Wunderground v.1.15,2013-01-18 04:10:00,
2013-01-17 23:15:00,31.7,29.4,30.14,West,275,0.0,0.0,91,0.00,,,0.02,0,Wunderground v.1.15,2013-01-18 04:15:00,
2013-01-17 23:21:00,31.6,29.3,30.14,West,275,0.0,0.0,91,0.00,,,0.02,0,Wunderground v.1.15,2013-01-18 04:21:00,
2013-01-17 23:27:00,31.5,29.2,30.14,WSW,245,0.0,2.0,91,0.00,,,0.02,0,Wunderground v.1.15,2013-01-18 04:27:00,
2013-01-17 23:33:00,31.5,29.2,30.15,WSW,245,0.0,1.0,91,0.00,,,0.02,0,Wunderground v.1.15,2013-01-18 04:33:00,
2013-01-17 23:38:00,31.5,29.2,30.15,SW,221,1.0,4.0,91,0.00,,,0.02,0,Wunderground v.1.15,2013-01-18 04:38:00,
2013-01-17 23:44:00,31.5,29.2,30.16,West,271,1.0,3.0,91,0.00,,,0.02,0,Wunderground v.1.15,2013-01-18 04:44:00,
2013-01-17 23:50:00,31.6,29.0,30.16,WSW,257,1.0,3.0,90,0.00,,,0.02,0,Wunderground v.1.15,2013-01-18 04:50:00,
2013-01-17 23:55:00,31.6,29.0,30.16,West,260,1.0,3.0,90,0.00,,,0.02,0,Wunderground v.1.15,2013-01-18 04:55:00,